TimeMDT,TemperatureF,Dew PointF,Humidity,Sea Level PressureIn,VisibilityMPH,Wind Direction,Wind SpeedMPH,Gust SpeedMPH,PrecipitationIn,Events,Conditions,WindDirDegrees,DateUTC
12:53 AM,32.0,21.0,64,30.00,10.0,South,4.6,-,N/A,,Clear,180,2012-10-08 06:53:00
1:53 AM,37.9,18.0,45,29.96,10.0,Calm,Calm,-,N/A,,Clear,0,2012-10-08 07:53:00
2:53 AM,35.1,19.0,52,29.96,10.0,Calm,Calm,-,N/A,,Clear,0,2012-10-08 08:53:00
3:53 AM,37.0,18.0,46,29.91,10.0,Calm,Calm,-,N/A,,Clear,0,2012-10-08 09:53:00
4:53 AM,36.0,19.0,50,29.91,10.0,Calm,Calm,-,N/A,,Clear,0,2012-10-08 10:53:00
5:53 AM,32.0,19.0,59,29.93,10.0,WNW,4.6,-,N/A,,Clear,290,2012-10-08 11:53:00
6:53 AM,36.0,17.1,46,29.93,10.0,NW,5.8,-,N/A,,Clear,320,2012-10-08 12:53:00
7:53 AM,33.1,18.0,54,29.97,10.0,Calm,Calm,-,N/A,,Clear,0,2012-10-08 13:53:00
8:53 AM,36.0,19.0,50,29.97,10.0,SE,3.5,-,N/A,,Clear,140,2012-10-08 14:53:00
9:53 AM,39.9,24.1,53,29.96,10.0,SE,3.5,-,N/A,,Clear,140,2012-10-08 15:53:00
10:53 AM,51.1,26.1,38,29.92,10.0,East,4.6,-,N/A,,Clear,100,2012-10-08 16:53:00
11:53 AM,59.0,21.0,23,29.85,10.0,ESE,12.7,-,N/A,,Clear,120,2012-10-08 17:53:00
12:53 PM,61.0,18.0,19,29.83,10.0,ESE,6.9,-,N/A,,Clear,120,2012-10-08 18:53:00
1:53 PM,63.0,15.1,16,29.77,10.0,ESE,9.2,-,N/A,,Clear,120,2012-10-08 19:53:00
2:53 PM,64.9,14.0,14,29.76,10.0,Variable,3.5,-,N/A,,Clear,0,2012-10-08 20:53:00
3:53 PM,66.9,15.1,14,29.72,10.0,ESE,9.2,-,N/A,,Clear,110,2012-10-08 21:53:00
4:53 PM,66.9,8.1,10,29.69,10.0,WNW,13.8,21.9,N/A,,Clear,290,2012-10-08 22:53:00
5:32 PM,64.4,14.0,14,29.80,10.0,North,11.5,-,N/A,,Clear,10,2012-10-08 23:32:00
5:53 PM,62.1,18.0,18,29.75,10.0,NNE,10.4,-,N/A,,Clear,30,2012-10-08 23:53:00
6:53 PM,57.0,19.0,23,29.78,10.0,Variable,3.5,-,N/A,,Clear,0,2012-10-09 00:53:00
7:53 PM,53.1,19.0,26,29.83,10.0,Calm,Calm,-,N/A,,Clear,0,2012-10-09 01:53:00
8:53 PM,50.0,19.9,31,29.86,10.0,NNW,5.8,-,N/A,,Clear,340,2012-10-09 02:53:00
9:53 PM,46.0,19.9,35,29.91,10.0,WNW,6.9,-,N/A,,Clear,290,2012-10-09 03:53:00
10:53 PM,45.0,19.0,36,29.88,10.0,West,4.6,-,N/A,,Clear,270,2012-10-09 04:53:00
11:53 PM,39.9,19.9,45,29.87,10.0,West,9.2,-,N/A,,Clear,260,2012-10-09 05:53:00